UAL201 PTKK-PGUM

Flight info

Callsign UAL201
Flight time N/A
Altitude 38000
Route WUMVE GUNSS
Aircraft B38M/M-SDE1FGHILORVWXY/HB1

Departure

Time 2026-04-27 22:08
Airport Chuuk International Airport (PTKK)

Arrival

Time N/A
Airport Antonio B. Won Pat International Airport (PGUM)
Time Latitude Longitude Altitude Speed Heading
2026-04-27 21:55 7.45789 151.84086 24 ft 0 kts 117°
2026-04-27 21:59 7.45796 151.84074 15 ft 4 kts 117°
2026-04-27 22:00 7.45808 151.84049 27 ft 4 kts 117°
2026-04-27 22:00 7.45821 151.84025 26 ft 4 kts 117°
2026-04-27 22:00 7.45827 151.84012 25 ft 0 kts 117°
2026-04-27 22:05 7.45826 151.84015 23 ft 3 kts 117°
2026-04-27 22:05 7.45816 151.84067 24 ft 8 kts 65°
2026-04-27 22:05 7.45855 151.84074 26 ft 8 kts 332°
2026-04-27 22:06 7.45885 151.83998 26 ft 14 kts 251°
2026-04-27 22:06 7.45785 151.83886 21 ft 30 kts 225°
2026-04-27 22:06 7.45666 151.83781 21 ft 16 kts 203°
2026-04-27 22:06 7.45596 151.83737 19 ft 7 kts 256°
2026-04-27 22:07 7.45601 151.83716 18 ft 3 kts 313°
2026-04-27 22:07 7.45620 151.83712 20 ft 3 kts 18°
2026-04-27 22:07 7.45637 151.83732 20 ft 2 kts 54°
2026-04-27 22:07 7.45656 151.83754 20 ft 1 kts 46°
2026-04-27 22:08 7.45777 151.83879 21 ft 66 kts 45°
2026-04-27 22:08 7.46302 151.84421 17 ft 147 kts 45°
2026-04-27 22:08 7.47104 151.85252 616 ft 167 kts 46°
2026-04-27 22:08 7.47844 151.85966 2153 ft 129 kts 41°
2026-04-27 22:09 7.48766 151.86288 2715 ft 164 kts
2026-04-27 22:09 7.49955 151.85897 3166 ft 197 kts 328°
2026-04-27 22:09 7.50817 151.84772 3968 ft 213 kts 294°
2026-04-27 22:09 7.51213 151.83221 4455 ft 242 kts 284°
2026-04-27 22:10 7.51534 151.81488 5127 ft 261 kts 284°
2026-04-27 22:10 7.51857 151.80292 5570 ft 273 kts 292°
2026-04-27 22:10 7.52719 151.78536 6263 ft 289 kts 303°
2026-04-27 22:10 7.53624 151.77088 6971 ft 294 kts 306°
2026-04-27 22:11 7.54777 151.75413 7970 ft 297 kts 308°
2026-04-27 22:11 7.56034 151.73731 8890 ft 303 kts 310°
2026-04-27 22:11 7.57370 151.72034 9866 ft 307 kts 311°
2026-04-27 22:11 7.58742 151.70344 10527 ft 321 kts 311°
2026-04-27 22:12 7.60205 151.68568 11106 ft 335 kts 311°
2026-04-27 22:12 7.61722 151.66744 11826 ft 342 kts 311°
2026-04-27 22:12 7.63265 151.64897 12696 ft 345 kts 312°
2026-04-27 22:12 7.64822 151.63042 13511 ft 350 kts 311°
2026-04-27 22:13 7.66402 151.61161 14251 ft 352 kts 311°
2026-04-27 22:13 7.67991 151.59269 14992 ft 355 kts 311°
2026-04-27 22:13 7.69590 151.57365 15734 ft 356 kts 311°
2026-04-27 22:13 7.71195 151.55455 16447 ft 358 kts 311°
2026-04-27 22:14 7.72810 151.53531 17137 ft 361 kts 311°
2026-04-27 22:14 7.74436 151.51595 17820 ft 363 kts 311°
2026-04-27 22:14 7.76071 151.49648 18428 ft 365 kts 311°
2026-04-27 22:14 7.77721 151.47683 18948 ft 369 kts 311°
2026-04-27 22:15 7.79407 151.45721 19444 ft 372 kts 312°
2026-04-27 22:15 7.81161 151.43732 19949 ft 376 kts 312°
2026-04-27 22:15 7.82903 151.41750 20439 ft 379 kts 312°
2026-04-27 22:15 7.84632 151.39780 20917 ft 383 kts 312°
2026-04-27 22:16 7.86430 151.37730 21383 ft 387 kts 312°
2026-04-27 22:16 7.88220 151.35689 21867 ft 390 kts 312°
2026-04-27 22:16 7.90025 151.33630 22341 ft 393 kts 312°
2026-04-27 22:16 7.91845 151.31553 22804 ft 397 kts 313°
2026-04-27 22:17 7.93659 151.29483 23261 ft 400 kts 313°
2026-04-27 22:17 7.95532 151.27346 23671 ft 403 kts 313°
2026-04-27 22:17 7.97419 151.25191 24064 ft 406 kts 312°
2026-04-27 22:17 7.99295 151.23050 24466 ft 408 kts 312°
2026-04-27 22:18 8.01175 151.20903 24853 ft 410 kts 312°
2026-04-27 22:18 8.03070 151.18739 25252 ft 412 kts 312°
2026-04-27 22:18 8.04973 151.16566 25638 ft 415 kts 312°
2026-04-27 22:18 8.06888 151.14378 26025 ft 417 kts 311°
2026-04-27 22:19 8.08813 151.12179 26396 ft 419 kts 311°
2026-04-27 22:19 8.10774 151.09939 26777 ft 421 kts 311°
2026-04-27 22:19 8.12720 151.07715 27147 ft 424 kts 311°
2026-04-27 22:19 8.14674 151.05481 27524 ft 426 kts 311°
2026-04-27 22:20 8.16641 151.03233 27879 ft 428 kts 311°
2026-04-27 22:20 8.18618 151.00973 28231 ft 430 kts 311°
2026-04-27 22:20 8.20605 150.98700 28594 ft 432 kts 311°
2026-04-27 22:20 8.22602 150.96417 28937 ft 435 kts 310°
2026-04-27 22:21 8.24604 150.94126 29278 ft 437 kts 310°
2026-04-27 22:21 8.26620 150.91819 29600 ft 439 kts 310°
2026-04-27 22:21 8.28642 150.89507 29930 ft 441 kts 310°
2026-04-27 22:21 8.30678 150.87175 30203 ft 443 kts 310°
2026-04-27 22:22 8.32748 150.84806 30483 ft 445 kts 310°
2026-04-27 22:22 8.34806 150.82451 30751 ft 447 kts 310°
2026-04-27 22:22 8.36865 150.80093 31016 ft 449 kts 310°
2026-04-27 22:22 8.38937 150.77720 31278 ft 451 kts 310°
2026-04-27 22:23 8.41010 150.75346 31553 ft 453 kts 310°
2026-04-27 22:23 8.43129 150.72919 31823 ft 454 kts 310°
2026-04-27 22:23 8.45221 150.70522 32093 ft 456 kts 310°
2026-04-27 22:23 8.47319 150.68116 32344 ft 458 kts 310°
2026-04-27 22:24 8.49432 150.65695 32601 ft 459 kts 310°
2026-04-27 22:24 8.51543 150.63274 32858 ft 461 kts 310°
2026-04-27 22:24 8.53670 150.60835 33119 ft 462 kts 310°
2026-04-27 22:24 8.55793 150.58400 33359 ft 464 kts 310°
2026-04-27 22:25 8.57925 150.55955 33611 ft 466 kts 310°
2026-04-27 22:25 8.60108 150.53450 33850 ft 467 kts 310°
2026-04-27 22:25 8.62251 150.50991 34121 ft 467 kts 310°
2026-04-27 22:25 8.64400 150.48524 34389 ft 467 kts 310°
2026-04-27 22:26 8.66544 150.46062 34686 ft 466 kts 310°
2026-04-27 22:26 8.68685 150.43605 34948 ft 466 kts 310°
2026-04-27 22:26 8.70824 150.41149 35237 ft 465 kts 310°
2026-04-27 22:26 8.72936 150.38721 35505 ft 465 kts 310°
2026-04-27 22:27 8.75095 150.36241 35782 ft 464 kts 310°
2026-04-27 22:27 8.77226 150.33793 36052 ft 463 kts 310°
2026-04-27 22:27 8.79357 150.31343 36313 ft 463 kts 310°
2026-04-27 22:27 8.81482 150.28900 36579 ft 463 kts 310°
2026-04-27 22:28 8.83604 150.26461 36840 ft 462 kts 310°
2026-04-27 22:28 8.85722 150.24025 37091 ft 461 kts 310°
2026-04-27 22:28 8.87845 150.21585 37337 ft 461 kts 310°
2026-04-27 22:28 8.89958 150.19154 37602 ft 460 kts 310°
2026-04-27 22:29 8.92067 150.16727 37837 ft 459 kts 310°
2026-04-27 22:29 8.96281 150.11876 37899 ft 457 kts 310°
2026-04-27 22:30 9.00471 150.07053 37901 ft 456 kts 310°
2026-04-27 22:30 9.04649 150.02240 37905 ft 455 kts 310°
2026-04-27 22:31 9.08821 149.97433 37914 ft 454 kts 310°
2026-04-27 22:31 9.12990 149.92628 37922 ft 454 kts 310°
2026-04-27 22:32 9.17154 149.87827 37913 ft 454 kts 310°
2026-04-27 22:32 9.21316 149.83025 37912 ft 453 kts 310°
2026-04-27 22:33 9.25477 149.78223 37906 ft 453 kts 310°
2026-04-27 22:33 9.29630 149.73430 37914 ft 453 kts 309°
2026-04-27 22:34 9.33780 149.68636 37910 ft 453 kts 310°
2026-04-27 22:34 9.37934 149.63836 37919 ft 453 kts 310°
2026-04-27 22:35 9.42085 149.59040 37918 ft 453 kts 309°
2026-04-27 22:35 9.46238 149.54237 37923 ft 453 kts 310°
2026-04-27 22:36 9.50394 149.49430 37914 ft 453 kts 310°
2026-04-27 22:36 9.54550 149.44620 37924 ft 454 kts 309°
2026-04-27 22:37 9.58732 149.39779 37914 ft 453 kts 309°
2026-04-27 22:37 9.62185 149.35781 37909 ft 454 kts 309°
2026-04-27 22:38 9.66341 149.30964 37910 ft 454 kts 309°
2026-04-27 22:38 9.70495 149.26151 37910 ft 454 kts 309°
2026-04-27 22:39 9.74682 149.21296 37913 ft 453 kts 310°
2026-04-27 22:39 9.78789 149.16532 37923 ft 444 kts 309°
2026-04-27 22:40 9.82846 149.11824 37917 ft 443 kts 310°
2026-04-27 22:40 9.86907 149.07109 37913 ft 443 kts 310°
2026-04-27 22:41 9.90957 149.02406 37918 ft 443 kts 310°
2026-04-27 22:41 9.95011 148.97696 37917 ft 443 kts 310°
2026-04-27 22:42 9.99065 148.92983 37918 ft 443 kts 310°
2026-04-27 22:42 10.03096 148.88297 37918 ft 443 kts 310°
2026-04-27 22:43 10.07144 148.83588 37917 ft 443 kts 310°
2026-04-27 22:43 10.11226 148.78836 37915 ft 443 kts 310°
2026-04-27 22:44 10.15255 148.74146 37922 ft 443 kts 310°
2026-04-27 22:44 10.19298 148.69437 37915 ft 443 kts 310°
2026-04-27 22:45 10.23351 148.64714 37918 ft 443 kts 311°
2026-04-27 22:45 10.27395 148.60000 37917 ft 443 kts 311°
2026-04-27 22:46 10.31464 148.55255 37919 ft 442 kts 311°
2026-04-27 22:46 10.35473 148.50576 37916 ft 442 kts 311°
2026-04-27 22:47 10.39507 148.45868 37921 ft 441 kts 311°
2026-04-27 22:47 10.43538 148.41161 37923 ft 441 kts 310°
2026-04-27 22:48 10.47593 148.36424 37920 ft 442 kts 311°
2026-04-27 22:48 10.51624 148.31714 37923 ft 442 kts 310°
2026-04-27 22:49 10.55651 148.27005 37922 ft 441 kts 310°
2026-04-27 22:49 10.59678 148.22295 37923 ft 441 kts 310°
2026-04-27 22:50 10.63706 148.17583 37921 ft 441 kts 310°
2026-04-27 22:50 10.67727 148.12875 37924 ft 441 kts 310°
2026-04-27 22:51 10.71748 148.08167 37925 ft 441 kts 310°
2026-04-27 22:51 10.75577 148.03299 37926 ft 441 kts 308°
2026-04-27 22:52 10.79383 147.98397 37923 ft 441 kts 308°
2026-04-27 22:52 10.83199 147.93498 37926 ft 441 kts 308°
2026-04-27 22:53 10.87013 147.88599 37925 ft 441 kts 308°
2026-04-27 22:53 10.90822 147.83707 37925 ft 441 kts 308°
2026-04-27 22:54 10.94632 147.78810 37926 ft 441 kts 308°
2026-04-27 22:54 10.98438 147.73917 37929 ft 441 kts 308°
2026-04-27 22:55 11.02241 147.69025 37927 ft 441 kts 308°
2026-04-27 22:55 11.06045 147.64128 37932 ft 441 kts 309°
2026-04-27 22:56 11.09880 147.59191 37933 ft 441 kts 309°
2026-04-27 22:56 11.13670 147.54308 37930 ft 440 kts 309°
2026-04-27 22:57 11.17462 147.49421 37934 ft 439 kts 309°
2026-04-27 22:57 11.21259 147.44525 37932 ft 439 kts 309°
2026-04-27 22:58 11.25088 147.39586 37932 ft 439 kts 309°
2026-04-27 22:58 11.28871 147.34703 37933 ft 439 kts 309°
2026-04-27 22:59 11.32656 147.29815 37933 ft 439 kts 309°
2026-04-27 22:59 11.36446 147.24920 37935 ft 440 kts 309°
2026-04-27 23:00 11.42122 147.17582 37936 ft 440 kts 310°
2026-04-27 23:00 11.45938 147.12646 37936 ft 440 kts 310°
2026-04-27 23:01 11.49726 147.07744 37932 ft 440 kts 310°
2026-04-27 23:01 11.53493 147.02866 37934 ft 440 kts 310°
2026-04-27 23:02 11.57306 146.97927 37937 ft 441 kts 310°
2026-04-27 23:02 11.61099 146.93013 37936 ft 441 kts 310°
2026-04-27 23:03 11.64892 146.88094 37934 ft 441 kts 310°
2026-04-27 23:03 11.68682 146.83178 37937 ft 441 kts 310°
2026-04-27 23:04 11.72504 146.78217 37944 ft 441 kts 310°
2026-04-27 23:04 11.76295 146.73295 37940 ft 442 kts 310°
2026-04-27 23:05 11.80088 146.68367 37939 ft 441 kts 310°
2026-04-27 23:05 11.83907 146.63403 37942 ft 442 kts 310°
2026-04-27 23:06 11.87059 146.59303 37936 ft 442 kts 310°
2026-04-27 23:06 11.90852 146.54369 37942 ft 442 kts 310°
2026-04-27 23:07 11.94697 146.49364 37939 ft 442 kts 310°
2026-04-27 23:07 11.98484 146.44432 37936 ft 441 kts 310°
2026-04-27 23:08 12.02272 146.39496 37889 ft 440 kts 310°
2026-04-27 23:08 12.04233 146.36940 37094 ft 441 kts 310°
2026-04-27 23:08 12.06133 146.34462 36324 ft 444 kts 310°
2026-04-27 23:09 12.08025 146.31994 35830 ft 440 kts 310°
2026-04-27 23:09 12.09901 146.29547 35392 ft 435 kts 310°
2026-04-27 23:09 12.11765 146.27116 34888 ft 433 kts 310°
2026-04-27 23:09 12.13615 146.24701 34359 ft 431 kts 310°
2026-04-27 23:10 12.15459 146.22294 33837 ft 430 kts 310°
2026-04-27 23:10 12.17300 146.19890 33255 ft 429 kts 310°
2026-04-27 23:10 12.19134 146.17494 32741 ft 426 kts 310°
2026-04-27 23:10 12.20954 146.15116 32252 ft 423 kts 310°
2026-04-27 23:11 12.22758 146.12759 31860 ft 418 kts 310°